Lid_Strength_Index
1 -0 -1 -1 -1 -1 -1 -1 -1 -1 -1 -1 -1 -1 -1 -1 -1 -1 -1 -1 -1 -1 -1 -1 -1 -1 -1 -1 -1 -1 -1 -1 -1 -1 -1 -1 -1 -1 -1 -1 -1 -1 -1
-0 -1 -1 -1 -1 -1 -1 -1 -1 -1 -1 -1 -1 -1 -1 -1 -1 -1 -1 -1 -1 -1 -1 -1 -1 -1 -1 -1 -1 -1 -1 -1 -1 -1 -1 -1 -1 -1 -1 -1 -1 -1 -1
0 -1 -1 -1 -1 -1 -1 -1 -1 -1 -1 -1 -1 -1 -1 -1 -1 -1 -1 -1 -1 -1 -1 -1 -1 -1 -1 -1 -1 -1 -1 -1 -1 -1 -1 -0 -0 -1 -1 -1 -1 -1 -1
1 0 -1 -1 -1 -1 -1 -1 -1 -1 -1 -1 -1 -1 -1 -1 -1 -1 -1 -1 -1 -1 -1 -1 -1 -1 -1 -1 -1 -1 -1 -1 -1 -1 -1 -1 -1 -1 -1 -1 -1 -1 -1
3 3 2 -0 -1 -1 -1 -1 -1 -1 -1 -1 -1 -1 -1 -1 -1 -1 -1 -1 -1 -1 -1 -1 -1 -1 -1 -1 -1 -1 -1 -1 -1 -1 -0 -0 -1 -1 -2 -2 -1 -1 -1
5 6 3 0 -1 -1 0 1 1 1 0 -0 -0 -1 -1 -1 -1 -1 -0 -0 -1 -1 -1 -1 -1 -1 -0 -0 -0 -1 -1 -1 -1 -0 -0 -0 -0 -1 -1 -1 -1 -1 -1
7 7 5 2 1 1 1 1 1 2 2 1 1 1 1 1 1 1 1 0 0 0 -1 -1 -1 -1 -0 -0 -0 -0 -0 -1 -0 -0 -0 -0 1 -1 -1 -2 -1 -1 -1
8 8 8 4 3 1 1 0 -0 1 1 2 2 2 2 2 2 2 2 2 2 1 1 1 0 -1 -1 -1 -0 0 0 -0 -1 -0 -0 -0 -1 -1 -1 -1 -1 -1 -1
8 9 9 8 4 2 1 0 0 1 1 1 0 1 1 1 1 1 2 3 3 3 2 2 2 1 0 -1 -1 0 1 0 -0 -0 -0 -0 -1 -1 -1 -2 -1 -1 -1
9 9 8 7 6 6 5 1 1 2 2 2 1 1 2 2 2 1 1 1 2 3 4 4 4 3 3 2 0 0 0 0 -0 0 -0 -0 -1 -1 -1 -1 -1 -1 -1
9 9 8 7 7 7 6 4 4 3 2 2 3 2 4 5 4 5 3 2 2 2 2 2 2 4 5 5 4 2 0 -0 0 -0 0 -0 -1 -1 -1 -1 -1 -1 -1
9 8 8 8 8 7 6 7 7 6 6 6 6 6 6 7 5 5 5 4 4 3 4 3 3 3 3 5 5 5 3 0 -0 0 -0 -0 -1 -1 -1 -1 -1 -1 -1
9 9 9 9 8 8 7 8 8 8 7 7 7 7 7 7 7 7 7 7 7 6 7 6 6 6 5 5 4 3 5 3 0 -1 -0 0 -1 -1 -1 -1 -1 -1 -1
10 9 9 8 9 9 8 9 9 8 8 8 8 9 9 10 10 9 9 8 9 9 9 8 7 7 6 5 5 4 3 2 2 1 -0 0 -0 -1 -1 -1 -1 -1 -1
10 10 10 9 10 9 9 9 9 9 9 9 10 10 10 11 12 11 11 10 11 11 10 10 9 8 8 8 7 6 6 4 2 1 0 -0 -0 -1 -1 -1 -1 -1 -1
9 10 10 10 10 10 11 11 11 10 10 10 11 11 11 12 12 12 12 12 12 12 11 11 11 10 10 9 9 8 7 6 5 4 1 0 -0 0 -0 -1 -1 -1 -1
10 10 10 11 11 11 12 11 11 11 11 12 12 12 12 12 13 13 13 13 12 12 12 11 11 11 11 11 11 10 9 8 6 5 3 1 -0 1 1 0 -1 -1 -1
11 11 11 10 12 12 13 12 12 12 12 13 13 13 13 12 13 13 13 13 12 12 12 12 12 12 12 12 12 11 10 9 7 6 5 3 0 -0 -0 1 -0 -1 -1
11 12 13 13 13 13 13 13 13 13 13 14 14 14 13 13 13 13 13 13 13 13 13 13 13 12 13 12 12 11 10 10 9 8 7 5 3 0 -0 0 1 0 0
12 12 13 13 13 13 13 14 14 14 14 14 14 14 14 14 13 14 14 14 14 14 14 13 13 13 13 13 12 12 11 10 9 9 8 6 5 2 -1 -0 -0 1 1
13 13 13 13 13 14 14 14 15 15 15 15 15 14 14 14 14 14 14 14 14 15 14 13 13 13 12 10 11 11 11 9 9 8 6 5 5 3 0 0 0 -0 1
13 13 13 13 14 14 14 15 15 15 15 15 15 15 14 14 14 14 15 14 14 14 14 13 13 13 11 10 12 11 11 8 7 5 5 5 4 2 0 -0 -0 1 0
14 14 14 14 14 14 14 15 15 15 15 16 16 16 15 14 14 14 14 14 14 14 14 13 11 12 13 11 11 12 13 12 10 6 4 2 2 1 0 0 -0 -0 -0
14 14 14 14 15 14 15 15 16 17 17 16 16 16 15 14 14 13 14 14 13 13 12 11 11 12 12 13 11 10 10 10 11 10 7 6 4 1 1 0 1 0 -0
14 14 14 14 15 15 15 15 16 17 17 16 16 16 16 15 13 13 13 13 13 12 12 12 12 12 12 12 12 12 11 10 9 10 11 9 6 2 2 1 3 2 1
15 15 15 15 15 15 15 16 16 17 17 17 17 17 16 14 14 13 12 12 12 13 14 14 13 13 13 13 13 11 11 11 11 10 9 9 7 4 3 2 2 1 2